Miscellaneous Local Product
Issued by NWS Hastings, NE

Home | Current Version | Previous Version | Graphics & Text | Print | Product List | Glossary On
Versions: 1 2 3 4 5 6 7 8 9 10 11 12 13 14 15 16 17 18 19 20 21 22 23 24 25 26 27 28 29 30 31 32 33 34 35 36 37 38 39 40 41 42 43 44 45 46 47 48 49 50
803
AXUS43 KGID 051402
MISGRI

GID CWA HOURLY WEATHER ROUNDUP
NATIONAL WEATHER SERVICE HASTINGS NE
800 AM CST FRI FEB 05 2016

NOTE: "FAIR" INDICATES FEW OR NO CLOUDS BELOW 12,000 FEET WITH NO
SIGNIFICANT WEATHER AND/OR OBSTRUCTIONS TO VISIBILITY.

...SOUTH CENTRAL NEBRASKA...

CITY           SKY/WX    TMP DP  RH WIND       PRES   REMARKS
GRAND ISLAND   LGT SNOW  25  22  88 S12       30.26S FOG     WCI  14
HASTINGS       LGT SNOW  24  21  88 S9        30.26S VSB 1   WCI  14
ORD            CLOUDY    24  22  91 SE3       30.20S FOG
YORK           LGT SNOW  23  23 100 S14       30.29S WCI  11
AURORA         LGT SNOW  24  22  96 S10       30.27S WCI  13
LEXINGTON      LGT SNOW  32  30  91 W6        30.23R WCI  27
HOLDREGE       LGT SNOW  27  25  93 SW10      30.25R WCI  17
HEBRON         LGT SNOW  24  20  85 S8        30.35F WCI  15

...NEBRASKA PANHANDLE...

CITY           SKY/WX    TMP DP  RH WIND       PRES   REMARKS
CHADRON        PTCLDY    27  21  78 W9        30.22S WCI  18
ALLIANCE       CLEAR     14  10  84 W12       30.20R WCI   0
SCOTTSBLUFF    CLEAR     15   9  76 NW12      30.26R WCI   2
SIDNEY         CLEAR     18  12  77 W12       30.24R WCI   5

...WESTERN AND NORTH CENTRAL NEBRASKA...

CITY           SKY/WX    TMP DP  RH WIND       PRES   REMARKS
VALENTINE      CLOUDY    28  22  78 W9        30.15S WCI  19
AINSWORTH      CLEAR     25  21  86 W6        30.15S WCI  18
ONEILL         CLOUDY    23  21  89 S6        30.17S WCI  16
BROKEN BOW     CLOUDY    31  28  89 W8        30.19R WCI  23
IMPERIAL       CLOUDY    28  21  75 W13       30.24R WCI  17
NORTH PLATTE   CLEAR     28  23  81 W10       30.20S WCI  19
MCCOOK         CLOUDY    32  28  85 SW14      30.25F WCI  22

...EASTERN NEBRASKA...

CITY           SKY/WX    TMP DP  RH WIND       PRES   REMARKS
NORFOLK        LGT SNOW  24  20  84 S18       30.23F FOG     WCI  10
SO SIOUX CITY  CLOUDY    13   9  84 E12       30.30F WCI  -1
TEKAMAH        LGT SNOW  16  13  88 SE5       30.35S FOG     WCI   9
COLUMBUS       CLOUDY    23  14  68 S14G20    30.29S WCI  11
ALBION         LGT SNOW  24  21  89 S6        30.24S WCI  17
OMAHA EPPLEY   CLOUDY    21  19  92 S9        30.37R WCI  11
OFFUTT AFB     CLOUDY    20  19  97 CALM      30.37R
MILLARD        CLOUDY    21  18  88 CALM      30.37R
LINCOLN        CLOUDY    20  16  84 SE5       30.36S WCI  13
NEBRASKA CITY  CLOUDY    21  19  91 S8        30.38R WCI  11
BEATRICE       CLOUDY    24  20  86 S6        30.37S WCI  16
FALLS CITY     CLOUDY    23  19  85 S6        30.40R WCI  16

...NORTHERN KANSAS...

CITY           SKY/WX    TMP DP  RH WIND       PRES   REMARKS
GOODLAND       CLOUDY    27  24  89 W9        30.27R WCI  18
HILL CITY      CLOUDY    25  18  74 W6        30.33R WCI  18
NORTON         CLOUDY    28  19  69 SW7       30.29R WCI  21
SMITH CENTER   CLOUDY    21  19  93 CALM      30.33F
BELOIT         CLOUDY    21  18  86 CALM      30.38R
HAYS           CLOUDY    21   9  58 SE6       30.32F WCI  14
RUSSELL        CLOUDY    23  19  85 E5        30.33S WCI  17
CONCORDIA      CLOUDY    25  19  78 SW3       30.36S
SALINA         CLOUDY    26  20  77 NW7       30.40R WCI  18
TOPEKA         CLOUDY    24  19  81 CALM      30.42R



USA.gov is the U.S. government's official web portal to all federal, state and local government web resources and services.